timestamp,wind_dir_avg,wind_spd_avg,wind_spd_max_dir,wind_spd_gust,battery_voltage,lat,long
2023-08-04 00:04:00+00:00,225.0,4.87,235.0,6.56,12.81,47.59359,-54.27349
2023-08-04 00:14:01+00:00,236.0,4.22,234.0,4.67,12.41,47.59359,-54.27349
2023-08-04 00:24:01+00:00,242.0,4.46,247.0,4.9,12.41,47.59359,-54.27349
2023-08-04 00:34:01+00:00,240.0,4.46,238.0,4.9,12.41,47.59359,-54.27349
2023-08-04 00:44:01+00:00,222.0,4.48,232.0,5.2,12.41,47.59359,-54.27349
2023-08-04 00:54:01+00:00,221.0,4.12,230.0,5.18,12.41,47.59359,-54.27349
2023-08-04 01:04:01+00:00,218.0,4.23,232.0,5.41,12.41,47.59359,-54.27349
2023-08-04 01:14:01+00:00,232.0,3.87,237.0,4.71,12.41,47.59359,-54.27349
2023-08-04 01:24:01+00:00,227.0,3.12,232.0,3.8,12.41,47.59359,-54.27349
2023-08-04 01:34:01+00:00,213.0,2.85,220.0,3.52,12.41,47.59359,-54.27349
2023-08-04 01:44:01+00:00,218.0,3.33,221.0,3.77,12.41,47.59359,-54.27349
2023-08-04 01:54:01+00:00,229.0,3.46,229.0,3.78,12.41,47.59359,-54.27349
2023-08-04 02:04:01+00:00,245.0,3.3,241.0,3.75,12.41,47.59359,-54.27349
2023-08-04 02:14:00+00:00,251.0,2.54,254.0,2.95,12.41,47.59359,-54.27349
2023-08-04 02:24:00+00:00,272.0,1.58,274.0,1.95,12.41,47.59359,-54.27349
2023-08-04 02:34:00+00:00,268.0,0.99,280.0,1.35,12.41,47.59359,-54.27349
2023-08-04 02:44:00+00:00,252.0,0.79,244.0,0.98,12.41,47.59359,-54.27349
2023-08-04 02:54:00+00:00,285.0,1.13,284.0,1.28,12.41,47.59359,-54.27349
2023-08-04 03:04:00+00:00,281.0,1.71,273.0,2.11,12.41,47.59359,-54.27349
2023-08-04 03:14:01+00:00,320.0,1.22,326.0,1.82,12.41,47.59359,-54.27349
2023-08-04 03:24:01+00:00,263.0,1.13,269.0,1.41,12.41,47.59359,-54.27349
2023-08-04 03:34:01+00:00,270.0,1.7,275.0,1.92,12.41,47.59359,-54.27349
2023-08-04 03:44:01+00:00,210.0,0.93,203.0,1.26,12.41,47.59359,-54.27349
2023-08-04 03:54:01+00:00,228.0,1.11,227.0,1.22,12.41,47.59359,-54.27349
2023-08-04 04:04:01+00:00,254.0,1.42,256.0,1.7,12.41,47.59359,-54.27349
2023-08-04 04:14:00+00:00,302.0,1.15,307.0,1.25,12.41,47.59359,-54.27349
2023-08-04 04:24:00+00:00,293.0,1.16,295.0,1.4,12.41,47.59359,-54.27349
2023-08-04 04:34:00+00:00,301.0,1.37,303.0,1.49,12.41,47.59359,-54.27349
2023-08-04 04:44:00+00:00,318.0,1.93,320.0,2.26,12.41,47.59359,-54.27349
2023-08-04 04:54:00+00:00,348.0,1.76,350.0,2.01,12.41,47.59359,-54.27349
2023-08-04 05:04:00+00:00,339.0,1.6,330.0,1.83,12.41,47.59359,-54.27349
2023-08-04 05:14:00+00:00,320.0,1.74,323.0,1.97,12.33,47.59359,-54.27349
2023-08-04 05:24:00+00:00,346.0,0.44,355.0,0.65,12.33,47.59359,-54.27349
2023-08-04 05:34:00+00:00,19.0,0.36,16.0,0.44,12.33,47.59359,-54.27349
2023-08-04 05:44:00+00:00,336.0,0.57,338.0,0.69,12.33,47.59359,-54.27349
2023-08-04 05:54:00+00:00,350.0,0.78,346.0,1.05,12.33,47.59359,-54.27349
2023-08-04 06:04:00+00:00,349.0,0.9,351.0,1.18,12.33,47.59359,-54.27349
2023-08-04 06:14:00+00:00,346.0,1.98,348.0,2.2,12.33,47.59359,-54.27349
2023-08-04 06:24:00+00:00,337.0,1.88,338.0,2.09,12.33,47.59359,-54.27349
2023-08-04 06:34:00+00:00,336.0,1.42,338.0,1.6,12.33,47.59359,-54.27349
2023-08-04 06:44:00+00:00,336.0,1.85,341.0,2.2,12.33,47.59359,-54.27349
2023-08-04 06:54:00+00:00,334.0,1.7,336.0,1.87,12.33,47.59359,-54.27349
2023-08-04 07:04:00+00:00,323.0,1.49,319.0,1.77,12.33,47.59359,-54.27349
2023-08-04 07:14:01+00:00,303.0,0.98,306.0,1.17,12.25,47.59359,-54.27349
2023-08-04 07:24:01+00:00,301.0,0.71,313.0,0.91,12.25,47.59359,-54.27349
2023-08-04 07:34:01+00:00,330.0,1.2,329.0,1.4,12.25,47.59359,-54.27349
2023-08-04 07:44:01+00:00,337.0,1.65,342.0,1.92,12.25,47.59359,-54.27349
2023-08-04 07:54:01+00:00,334.0,1.47,335.0,1.66,12.25,47.59359,-54.27349
2023-08-04 08:04:01+00:00,318.0,1.21,322.0,1.4,12.25,47.59359,-54.27349
2023-08-04 08:14:01+00:00,297.0,1.44,300.0,1.68,12.25,47.59359,-54.27349
2023-08-04 08:24:01+00:00,261.0,1.15,261.0,1.45,12.25,47.59359,-54.27349
2023-08-04 08:34:01+00:00,266.0,1.81,265.0,2.18,12.25,47.59359,-54.27349
2023-08-04 08:44:01+00:00,270.0,2.05,272.0,2.33,12.25,47.59359,-54.27349
2023-08-04 08:54:01+00:00,287.0,2.41,286.0,2.65,12.25,47.59359,-54.27349
2023-08-04 09:04:01+00:00,291.0,1.73,291.0,2.04,12.25,47.59359,-54.27349
2023-08-04 09:14:00+00:00,306.0,1.97,309.0,2.32,12.41,47.59359,-54.27349
2023-08-04 09:24:00+00:00,302.0,1.34,295.0,1.71,12.41,47.59359,-54.27349
2023-08-04 09:34:00+00:00,292.0,0.86,301.0,1.12,12.41,47.59359,-54.27349
2023-08-04 09:44:00+00:00,337.0,1.3,346.0,1.77,12.41,47.59359,-54.27349
2023-08-04 09:54:00+00:00,347.0,1.46,350.0,1.72,12.41,47.59359,-54.27349
2023-08-04 10:04:00+00:00,329.0,1.67,329.0,1.87,12.41,47.59359,-54.27349
2023-08-04 10:14:00+00:00,356.0,1.46,357.0,1.75,13.21,47.59359,-54.27349
2023-08-04 10:24:00+00:00,354.0,1.59,349.0,1.82,13.21,47.59359,-54.27349
2023-08-04 10:34:00+00:00,15.0,1.82,9.0,2.05,13.21,47.59359,-54.27349
2023-08-04 10:44:00+00:00,18.0,1.83,16.0,2.12,13.21,47.59359,-54.27349
2023-08-04 10:54:00+00:00,10.0,1.56,10.0,2.0,13.21,47.59359,-54.27349
2023-08-04 11:04:00+00:00,30.0,0.87,33.0,1.09,13.21,47.59359,-54.27349
2023-08-04 11:14:01+00:00,23.0,0.81,14.0,0.97,13.6,47.59359,-54.27349
2023-08-04 11:24:01+00:00,15.0,1.07,19.0,1.21,13.6,47.59359,-54.27349
2023-08-04 11:34:01+00:00,39.0,0.79,30.0,1.15,13.6,47.59359,-54.27349
2023-08-04 11:44:01+00:00,23.0,0.69,18.0,0.87,13.6,47.59359,-54.27349
2023-08-04 11:54:01+00:00,354.0,0.44,356.0,0.56,13.6,47.59359,-54.27349
2023-08-04 12:04:01+00:00,0.0,0.64,356.0,0.79,13.6,47.59359,-54.27349
2023-08-04 12:14:00+00:00,30.0,0.73,22.0,0.95,13.92,47.59359,-54.27349
2023-08-04 12:24:00+00:00,13.0,0.39,13.0,0.5,13.92,47.59359,-54.27349
2023-08-04 12:34:00+00:00,38.0,1.11,37.0,1.38,13.92,47.59359,-54.27349
2023-08-04 12:44:00+00:00,7.0,0.68,5.0,0.96,13.92,47.59359,-54.27349
2023-08-04 12:54:00+00:00,17.0,0.63,16.0,0.9,13.92,47.59359,-54.27349
2023-08-04 13:04:00+00:00,350.0,1.04,353.0,1.15,13.92,47.59359,-54.27349
2023-08-04 13:14:01+00:00,349.0,1.17,345.0,1.3,13.53,47.59359,-54.27349
2023-08-04 13:24:01+00:00,352.0,1.36,348.0,1.54,13.53,47.59359,-54.27349
2023-08-04 13:34:01+00:00,357.0,1.22,357.0,1.52,13.53,47.59359,-54.27349
2023-08-04 13:44:01+00:00,11.0,1.45,9.0,1.72,13.53,47.59359,-54.27349
2023-08-04 13:54:01+00:00,12.0,1.81,4.0,2.07,13.53,47.59359,-54.27349
2023-08-04 14:04:01+00:00,21.0,1.64,21.0,1.87,13.53,47.59359,-54.27349
2023-08-04 14:14:01+00:00,20.0,1.55,20.0,1.72,14.24,47.59359,-54.27349
2023-08-04 14:24:01+00:00,5.0,1.92,6.0,2.09,14.24,47.59359,-54.27349
2023-08-04 14:34:01+00:00,13.0,1.54,15.0,1.71,14.24,47.59359,-54.27349
2023-08-04 14:44:01+00:00,4.0,1.41,7.0,1.51,14.24,47.59359,-54.27349
2023-08-04 14:54:01+00:00,354.0,1.11,358.0,1.28,14.24,47.59359,-54.27349
2023-08-04 15:04:01+00:00,338.0,1.02,341.0,1.13,14.24,47.59359,-54.27349
2023-08-04 15:14:00+00:00,342.0,1.39,342.0,1.47,14.32,47.59359,-54.27349
2023-08-04 15:24:00+00:00,326.0,1.62,326.0,1.8,14.32,47.59359,-54.27349
2023-08-04 15:34:00+00:00,319.0,1.4,320.0,1.55,14.32,47.59359,-54.27349
2023-08-04 15:44:00+00:00,295.0,1.56,300.0,1.72,14.32,47.59359,-54.27349
2023-08-04 15:54:00+00:00,304.0,1.78,300.0,1.93,14.32,47.59359,-54.27349
2023-08-04 16:04:00+00:00,305.0,2.08,304.0,2.33,14.32,47.59359,-54.27349
2023-08-04 16:14:00+00:00,296.0,2.1,298.0,2.26,14.32,47.59359,-54.27349
2023-08-04 16:24:00+00:00,310.0,2.4,312.0,2.63,14.32,47.59359,-54.27349
2023-08-04 16:34:00+00:00,311.0,2.07,311.0,2.21,14.32,47.59359,-54.27349
2023-08-04 16:44:00+00:00,309.0,1.49,311.0,1.65,14.32,47.59359,-54.27349
2023-08-04 16:54:00+00:00,335.0,1.62,339.0,1.8,14.32,47.59359,-54.27349
2023-08-04 17:04:00+00:00,1.0,2.18,5.0,2.47,14.32,47.59359,-54.27349
2023-08-04 17:14:00+00:00,12.0,2.15,12.0,2.57,14.32,47.59359,-54.27349
2023-08-04 17:24:00+00:00,13.0,2.92,11.0,3.28,14.32,47.59359,-54.27349
2023-08-04 17:34:00+00:00,20.0,3.28,19.0,3.81,14.32,47.59359,-54.27349
2023-08-04 17:44:00+00:00,20.0,3.44,20.0,4.18,14.32,47.59359,-54.27349
2023-08-04 17:54:00+00:00,23.0,3.6,32.0,4.21,14.32,47.59359,-54.27349
2023-08-04 18:04:00+00:00,24.0,3.49,39.0,4.83,14.32,47.59359,-54.27349
2023-08-04 18:14:01+00:00,15.0,3.7,16.0,3.96,13.84,47.59359,-54.27349
2023-08-04 18:24:01+00:00,27.0,3.91,33.0,4.23,13.84,47.59359,-54.27349
2023-08-04 18:34:01+00:00,23.0,3.46,28.0,4.21,13.84,47.59359,-54.27349
2023-08-04 18:44:01+00:00,22.0,3.75,30.0,4.57,13.84,47.59359,-54.27349
2023-08-04 18:54:01+00:00,35.0,5.11,43.0,5.96,13.84,47.59359,-54.27349
2023-08-04 19:04:01+00:00,33.0,4.66,41.0,5.15,13.84,47.59359,-54.27349
2023-08-04 19:14:00+00:00,43.0,4.13,41.0,4.7,13.76,47.59359,-54.27349
2023-08-04 19:24:00+00:00,87.0,2.86,113.0,4.45,13.76,47.59359,-54.27349
2023-08-04 19:34:00+00:00,207.0,7.48,212.0,8.5,13.76,47.59359,-54.27349
2023-08-04 19:44:00+00:00,214.0,7.78,219.0,9.22,13.76,47.59359,-54.27349
2023-08-04 19:54:00+00:00,219.0,9.15,223.0,10.87,13.76,47.59359,-54.27349
2023-08-04 20:04:00+00:00,221.0,7.18,220.0,7.91,13.76,47.59359,-54.27349
2023-08-04 20:14:00+00:00,219.0,7.25,221.0,8.02,13.53,47.59359,-54.27349
2023-08-04 20:24:00+00:00,206.0,7.03,211.0,7.99,13.53,47.59359,-54.27349
2023-08-04 20:34:00+00:00,208.0,7.83,214.0,8.63,13.53,47.59359,-54.27349
2023-08-04 20:44:00+00:00,211.0,8.02,215.0,9.04,13.53,47.59359,-54.27349
2023-08-04 20:54:00+00:00,203.0,7.72,210.0,8.54,13.53,47.59359,-54.27349
2023-08-04 21:04:00+00:00,207.0,8.0,221.0,9.0,13.53,47.59359,-54.27349
2023-08-04 21:14:00+00:00,208.0,8.66,213.0,10.04,13.37,47.59359,-54.27349
2023-08-04 21:24:00+00:00,211.0,8.11,224.0,9.15,13.37,47.59359,-54.27349
2023-08-04 21:34:00+00:00,212.0,8.65,223.0,10.21,13.37,47.59359,-54.27349
2023-08-04 21:44:00+00:00,212.0,7.53,216.0,8.24,13.37,47.59359,-54.27349
2023-08-04 21:54:00+00:00,209.0,7.5,210.0,8.18,13.37,47.59359,-54.27349
2023-08-04 22:04:00+00:00,213.0,7.34,213.0,7.83,13.37,47.59359,-54.27349
2023-08-04 22:14:00+00:00,211.0,8.08,210.0,8.94,13.21,47.59359,-54.27349
2023-08-04 22:24:00+00:00,212.0,7.86,212.0,8.8,13.21,47.59359,-54.27349
2023-08-04 22:34:00+00:00,212.0,7.66,208.0,8.29,13.21,47.59359,-54.27349
2023-08-04 22:44:00+00:00,213.0,8.57,223.0,10.03,13.21,47.59359,-54.27349
2023-08-04 22:54:00+00:00,217.0,8.09,222.0,9.66,13.21,47.59359,-54.27349
2023-08-04 23:04:00+00:00,217.0,8.56,223.0,9.83,13.21,47.59359,-54.27349
2023-08-04 23:14:00+00:00,219.0,7.83,221.0,8.49,12.73,47.59359,-54.27349
2023-08-04 23:24:00+00:00,217.0,7.55,216.0,8.33,12.73,47.59359,-54.27349
2023-08-04 23:34:00+00:00,215.0,7.97,216.0,9.09,12.73,47.59359,-54.27349
2023-08-04 23:44:00+00:00,222.0,7.99,222.0,9.07,12.73,47.59359,-54.27349
2023-08-04 23:54:00+00:00,220.0,7.99,221.0,8.95,12.73,47.59359,-54.27349
